Wind_Speed
11 11 10 10 10 10 9 9 8 8 8 8 9 9 9 9 9 9 10 11 11 10 10 10 10 10 10 10 10 9 8 8 8 7 6 6 6 5 5 5 5 5 5
11 11 10 10 10 10 9 9 8 8 8 8 8 8 9 9 9 10 9 9 10 10 10 10 10 10 10 10 10 10 9 8 8 7 6 6 6 5 5 5 5 5 5
10 10 10 10 10 10 9 9 8 7 8 8 8 8 8 9 9 9 9 9 10 10 10 10 10 10 10 9 9 9 8 8 7 7 6 6 6 5 5 5 5 5 5
9 9 9 9 9 9 9 8 7 6 6 6 7 7 7 7 8 8 9 8 9 9 9 9 9 9 9 9 9 8 8 7 7 7 6 6 6 6 5 5 5 5 5
8 8 8 8 9 8 8 8 7 6 6 5 5 6 6 6 7 7 7 8 8 8 8 8 8 9 8 8 8 7 7 7 6 6 6 6 6 6 6 5 5 5 5
8 8 8 8 8 8 7 7 7 6 5 5 5 5 6 6 6 7 7 8 8 8 8 8 8 8 8 8 8 7 7 7 6 6 6 6 6 5 5 5 5 5 5
8 8 8 7 7 7 7 7 6 6 5 5 5 5 6 5 5 6 6 7 7 7 7 7 7 8 7 7 7 7 7 6 7 7 6 5 5 5 5 4 4 4 5
8 7 7 7 7 7 6 7 6 5 5 5 5 4 4 5 5 5 5 6 6 6 6 7 7 7 7 7 7 7 7 6 6 6 6 5 5 5 4 4 4 5 5
8 7 7 8 7 7 7 6 6 5 4 5 4 4 4 4 4 5 5 5 4 5 6 6 7 7 7 7 7 7 7 6 6 5 5 4 5 5 5 5 5 5 5
9 9 9 8 7 8 8 8 8 6 5 4 4 4 4 4 4 4 3 4 4 5 5 6 6 6 6 7 6 6 6 6 6 5 5 4 4 4 4 5 5 5 4
10 9 9 9 8 7 8 8 7 6 6 5 5 4 4 3 3 4 4 3 3 4 5 5 5 5 6 6 6 6 6 6 6 6 5 5 4 4 4 4 4 4 4
10 10 10 10 9 8 7 7 6 6 5 5 5 4 4 3 4 4 3 3 3 3 4 4 4 4 5 5 5 5 5 5 5 5 5 5 5 4 4 4 4 4 4
10 10 10 10 10 9 7 6 6 6 5 4 4 4 4 3 3 3 2 2 2 2 3 3 3 3 4 4 5 5 5 5 5 6 6 5 5 5 5 5 4 4 3
11 11 10 10 10 9 8 7 6 5 5 4 4 4 4 3 3 2 2 1 1 1 2 2 3 3 3 3 3 4 4 4 5 6 6 5 5 5 4 4 4 3 3
11 11 10 10 10 9 8 8 6 5 5 4 4 4 3 3 2 2 2 1 1 1 1 2 2 2 3 2 2 3 3 3 4 4 5 5 5 5 4 4 4 4 3
10 11 10 9 9 9 8 8 7 5 4 4 3 3 2 2 1 1 2 2 1 2 3 3 2 1 1 1 2 2 2 3 3 4 4 4 4 4 3 3 3 3 3
10 10 9 9 8 8 8 8 8 6 5 4 3 3 3 2 1 1 0 1 1 1 2 2 2 1 1 1 1 2 2 2 3 3 3 4 4 3 3 2 2 2 3
9 9 9 9 8 8 8 7 7 7 5 5 4 3 3 3 2 1 0 0 0 0 1 2 2 1 1 1 2 2 2 2 3 2 3 3 3 3 3 2 2 2 3
8 8 9 8 8 8 8 7 7 7 6 5 4 4 4 4 3 2 1 0 1 1 1 1 1 1 2 2 2 2 2 2 3 2 2 3 3 3 3 2 2 2 3
8 8 8 8 8 8 7 7 7 7 7 6 5 4 4 4 3 2 1 1 1 2 1 1 1 2 2 2 3 2 2 2 3 3 2 3 4 4 4 4 3 3 3
7 7 7 7 7 7 7 7 7 7 7 6 5 4 4 4 3 2 2 2 2 2 2 2 2 3 3 3 3 3 3 3 3 3 4 4 4 4 4 5 4 4 4
6 6 6 6 6 6 6 6 7 7 6 6 5 5 4 3 3 2 2 2 3 3 3 3 4 4 4 5 4 4 4 5 5 5 5 5 5 5 5 5 5 6 6
5 6 6 6 6 5 5 5 6 6 5 5 5 5 4 4 3 3 3 3 4 4 5 5 5 5 5 6 6 5 6 6 6 6 6 6 6 7 7 7 7 7 8
5 5 5 5 5 5 5 5 5 6 5 5 5 5 4 4 4 4 4 4 5 5 6 6 6 7 7 7 7 8 8 8 8 8 8 8 8 8 9 9 9 9 9
4 4 4 5 5 5 4 5 5 5 5 6 6 7 6 5 6 6 6 6 6 6 7 7 8 8 9 9 9 9 9 9 9 9 9 9 9 9 10 10 10 11 11
5 5 5 5 5 5 5 5 5 5 6 6 7 7 8 7 7 7 7 7 7 7 7 8 9 9 10 10 10 10 10 10 10 10 10 10 10 10 10 11 11 12 12
Wind_Direction
77 79 78 76 76 75 75 75 77 83 87 94 92 91 92 94 96 100 106 106 105 102 101 99 99 98 96 92 87 87 88 86 84 83 78 75 73 78 81 82 85 82 81
78 79 77 76 75 74 73 75 79 82 86 87 89 96 98 97 98 99 98 103 103 103 100 99 94 91 90 87 85 84 83 83 80 78 77 74 72 74 80 82 88 89 86
78 79 78 76 74 75 73 74 78 85 88 89 90 91 95 96 94 98 98 100 100 101 99 95 90 88 87 86 87 83 78 75 74 75 72 71 71 74 79 86 91 92 91
77 77 78 76 74 73 71 71 77 85 90 87 88 91 93 94 95 97 96 93 93 94 94 91 87 82 81 80 78 75 72 71 69 68 64 68 69 69 70 79 84 89 95
75 74 76 75 74 71 69 70 76 83 83 81 85 90 93 94 94 93 93 90 90 91 88 84 80 74 75 76 77 73 72 69 67 62 60 63 66 66 67 72 81 91 97
73 72 72 72 72 73 72 67 70 72 69 69 74 80 86 91 89 86 87 89 89 87 80 76 74 75 76 78 77 72 69 66 61 55 56 60 64 65 68 73 79 86 94
72 71 70 69 69 72 72 71 67 66 69 73 74 72 72 70 79 84 86 92 93 87 80 75 73 74 76 76 72 67 68 65 58 55 55 58 60 60 65 75 84 87 91
71 64 66 63 61 62 63 64 64 65 69 69 69 69 74 76 79 78 82 85 86 84 81 79 76 76 76 74 70 67 64 57 57 55 52 54 56 56 63 72 85 94 91
66 64 62 63 60 57 61 60 56 61 65 62 63 67 72 74 75 77 78 83 88 86 83 80 77 74 73 72 67 63 60 54 54 53 48 50 54 56 64 71 80 96 93
65 65 64 62 60 59 57 61 64 72 67 64 61 71 74 69 71 75 79 80 87 86 79 75 71 67 70 70 67 62 58 51 51 48 46 43 48 56 60 64 72 85 91
62 64 61 57 58 57 56 64 69 69 73 73 71 75 78 74 76 75 83 86 85 83 78 72 65 60 69 67 63 59 56 47 44 40 43 40 41 49 56 66 72 81 86
61 61 59 57 56 55 54 63 65 65 73 76 74 76 79 81 79 79 88 87 81 84 77 70 64 58 60 62 59 54 56 46 44 42 46 45 47 53 63 65 69 75 83
60 59 56 55 51 50 49 50 55 59 60 64 65 64 72 79 75 75 88 86 73 69 63 59 49 59 62 59 57 54 54 46 44 44 43 44 48 55 61 61 64 70 81
58 57 55 53 51 49 47 46 49 51 50 49 55 58 66 67 62 70 83 89 71 41 42 44 49 54 56 51 53 55 47 39 42 42 42 42 45 49 52 51 57 64 70
57 57 52 51 49 47 46 44 45 45 45 44 50 58 62 62 60 58 61 67 73 65 60 47 39 51 61 53 49 55 43 35 39 37 36 35 38 44 47 49 52 56 60
52 52 53 51 45 44 46 48 46 43 41 48 49 45 45 55 72 79 60 59 58 50 49 50 40 43 71 55 37 37 36 32 28 23 25 29 32 32 32 39 46 42 40
46 45 46 49 48 46 46 45 44 44 43 50 54 42 28 28 42 67 105 88 64 47 41 30 31 33 39 29 15 20 10 7 6 6 11 20 25 25 24 21 17 11 11
41 39 39 41 43 45 42 40 40 37 37 42 38 24 26 28 24 20 170 190 156 14 32 21 33 38 17 359 350 358 359 352 353 356 357 5 6 4 6 1 346 343 342
33 32 33 36 36 37 39 38 36 35 34 35 36 33 37 36 40 25 5 328 299 296 309 346 5 350 348 344 341 338 341 339 340 349 351 345 348 348 339 334 332 330 327
24 25 28 32 33 33 36 38 34 31 30 34 36 40 40 30 24 10 0 338 314 307 293 305 302 310 309 319 320 316 319 314 312 327 327 319 323 333 331 321 314 316 310
16 22 26 29 30 31 33 34 32 28 26 29 29 31 24 16 10 1 357 328 312 313 304 288 292 301 301 299 306 305 301 300 303 306 308 306 308 314 319 319 309 300 298
8 18 24 24 26 28 29 30 27 27 26 23 21 19 14 4 356 348 329 305 292 293 292 291 290 293 289 292 295 296 293 290 292 296 298 299 298 301 306 304 298 294 291
359 9 12 16 19 21 25 22 19 18 16 14 9 1 358 348 330 315 317 301 286 279 279 284 289 289 287 285 284 283 284 285 286 290 290 290 292 294 296 294 288 288 286
349 354 358 3 8 10 12 12 11 12 9 358 352 351 338 332 328 313 296 296 291 282 277 281 288 285 283 280 282 283 279 278 278 284 284 282 284 288 293 293 289 284 286
327 333 333 341 351 357 1 3 2 2 1 356 350 349 345 332 327 319 301 287 284 281 282 285 287 286 283 281 280 281 276 274 274 277 281 279 282 283 288 290 288 284 286
298 303 311 312 321 331 335 341 348 347 344 344 343 338 339 334 330 325 312 295 282 281 281 285 287 287 287 284 281 280 275 271 271 274 278 283 286 287 287 287 289 288 286
Height
5891 5891 5891 5890 5890 5890 5890 5890 5890 5889 5889 5889 5888 5888 5888 5888 5887 5887 5887 5887 5887 5887 5887 5887 5887 5887 5887 5887 5887 5887 5887 5886 5886 5886 5886 5885 5885 5885 5884 5884 5884 5883 5883
5893 5893 5893 5892 5892 5892 5892 5892 5891 5891 5891 5891 5890 5890 5890 5889 5889 5889 5889 5888 5888 5888 5888 5888 5888 5888 5888 5888 5888 5888 5888 5888 5887 5887 5887 5886 5886 5885 5885 5885 5884 5884 5884
5895 5895 5894 5894 5894 5894 5893 5893 5893 5893 5893 5892 5892 5892 5892 5891 5891 5891 5891 5890 5890 5890 5890 5890 5890 5890 5890 5890 5889 5889 5889 5889 5888 5888 5888 5887 5887 5886 5886 5885 5885 5885 5884
5896 5896 5896 5896 5895 5895 5895 5895 5895 5895 5895 5894 5894 5894 5893 5893 5893 5893 5892 5892 5892 5892 5892 5892 5892 5891 5891 5891 5891 5890 5890 5890 5889 5889 5888 5888 5888 5887 5886 5886 5886 5885 5885
5898 5898 5897 5897 5897 5897 5897 5897 5897 5897 5896 5896 5896 5896 5895 5895 5895 5895 5894 5894 5894 5893 5893 5893 5893 5893 5893 5892 5892 5892 5891 5891 5890 5890 5889 5889 5888 5888 5887 5887 5886 5886 5885
5899 5899 5899 5899 5898 5898 5898 5898 5898 5898 5898 5898 5898 5897 5897 5897 5896 5896 5896 5896 5895 5895 5895 5895 5895 5894 5894 5894 5893 5893 5892 5892 5891 5890 5890 5889 5889 5888 5888 5887 5887 5886 5886
5901 5901 5900 5900 5900 5899 5899 5899 5899 5899 5899 5899 5899 5899 5898 5898 5898 5897 5897 5897 5897 5897 5897 5896 5896 5896 5895 5895 5894 5894 5893 5893 5892 5892 5891 5890 5890 5889 5888 5887 5887 5886 5886
5902 5902 5902 5901 5901 5901 5900 5900 5900 5900 5900 5900 5900 5900 5900 5900 5899 5899 5899 5899 5898 5898 5898 5898 5898 5897 5897 5896 5895 5895 5894 5894 5893 5892 5892 5891 5890 5889 5888 5887 5887 5887 5887
5903 5903 5903 5902 5902 5902 5901 5901 5901 5901 5901 5901 5901 5900 5900 5901 5900 5900 5900 5900 5900 5900 5900 5899 5899 5898 5898 5897 5896 5896 5895 5894 5894 5893 5893 5892 5891 5890 5889 5888 5887 5887 5887
5905 5904 5904 5903 5903 5903 5903 5902 5901 5901 5901 5901 5901 5901 5901 5901 5901 5901 5901 5900 5900 5900 5900 5900 5899 5899 5899 5898 5897 5897 5896 5896 5895 5894 5893 5892 5891 5890 5889 5888 5888 5887 5887
5906 5906 5905 5905 5904 5904 5904 5903 5903 5902 5902 5902 5902 5902 5902 5902 5902 5902 5901 5901 5901 5901 5901 5900 5900 5900 5899 5899 5898 5897 5897 5896 5896 5895 5894 5893 5892 5891 5890 5889 5888 5888 5888
5907 5907 5907 5906 5906 5905 5905 5904 5904 5903 5903 5903 5902 5902 5902 5902 5902 5902 5902 5902 5902 5902 5901 5901 5901 5900 5900 5899 5899 5898 5898 5897 5896 5895 5894 5893 5893 5891 5890 5890 5889 5889 5888
5909 5908 5908 5907 5907 5906 5906 5905 5905 5904 5904 5904 5904 5903 5903 5903 5903 5903 5903 5903 5903 5902 5902 5902 5901 5901 5900 5900 5899 5899 5899 5898 5897 5896 5895 5894 5893 5892 5891 5891 5890 5889 5889
5910 5910 5909 5908 5908 5907 5906 5906 5905 5905 5905 5905 5905 5904 5904 5904 5904 5903 5903 5903 5903 5903 5903 5902 5902 5901 5901 5900 5900 5900 5899 5899 5898 5897 5896 5895 5894 5893 5892 5891 5891 5890 5890
5912 5911 5910 5910 5909 5908 5907 5906 5906 5906 5905 5905 5905 5905 5904 5904 5904 5904 5903 5903 5903 5903 5903 5903 5902 5902 5901 5901 5901 5900 5900 5899 5898 5898 5897 5896 5895 5894 5893 5892 5891 5891 5890
5913 5912 5912 5911 5910 5909 5908 5907 5906 5906 5906 5906 5905 5905 5905 5904 5904 5904 5904 5903 5903 5903 5903 5903 5903 5902 5902 5902 5901 5901 5900 5900 5899 5898 5897 5896 5895 5894 5894 5893 5892 5891 5891
5914 5913 5913 5912 5911 5910 5909 5908 5907 5907 5906 5906 5906 5905 5905 5904 5904 5904 5903 5904 5903 5903 5903 5903 5903 5903 5902 5902 5901 5901 5900 5900 5899 5898 5897 5897 5896 5895 5894 5893 5892 5892 5891
5915 5914 5913 5912 5911 5910 5909 5909 5908 5907 5906 5906 5905 5905 5904 5904 5903 5903 5903 5903 5903 5903 5903 5903 5903 5903 5902 5902 5901 5901 5900 5900 5899 5898 5897 5897 5896 5895 5894 5893 5892 5892 5891
5915 5914 5913 5912 5912 5911 5910 5909 5908 5907 5907 5906 5905 5905 5904 5904 5903 5903 5903 5903 5903 5903 5903 5903 5903 5903 5902 5902 5901 5901 5900 5900 5899 5898 5897 5896 5895 5894 5894 5893 5892 5892 5891
5916 5915 5914 5913 5912 5911 5910 5909 5908 5907 5906 5906 5905 5905 5904 5904 5903 5903 5903 5903 5903 5902 5902 5902 5902 5902 5902 5902 5901 5900 5900 5899 5898 5898 5897 5896 5895 5894 5893 5893 5892 5891 5891
5917 5916 5914 5913 5912 5911 5910 5909 5908 5907 5906 5906 5905 5905 5904 5904 5903 5903 5903 5902 5902 5902 5902 5902 5902 5901 5901 5900 5900 5900 5899 5899 5898 5897 5896 5896 5895 5894 5893 5892 5891 5890 5890
5917 5916 5915 5913 5912 5911 5910 5910 5909 5907 5906 5906 5905 5904 5904 5903 5903 5902 5902 5902 5902 5901 5901 5901 5901 5900 5900 5899 5899 5899 5898 5898 5897 5897 5896 5895 5894 5893 5892 5891 5890 5889 5889
5917 5916 5915 5913 5912 5912 5911 5910 5909 5907 5906 5906 5905 5904 5903 5902 5902 5901 5901 5901 5900 5900 5900 5900 5900 5899 5899 5898 5898 5898 5897 5897 5896 5896 5895 5894 5893 5892 5891 5890 5889 5888 5887
5916 5915 5915 5914 5913 5911 5911 5910 5908 5907 5906 5906 5905 5903 5902 5902 5901 5900 5900 5900 5899 5899 5898 5898 5898 5898 5897 5897 5897 5896 5896 5895 5895 5894 5893 5892 5891 5890 5889 5888 5887 5886 5885
5915 5915 5914 5913 5912 5911 5910 5909 5908 5907 5906 5905 5904 5903 5902 5901 5900 5899 5898 5898 5898 5897 5897 5896 5896 5896 5895 5895 5894 5894 5893 5893 5892 5892 5891 5890 5889 5888 5887 5886 5885 5884 5883
5914 5913 5913 5912 5911 5910 5909 5909 5908 5906 5906 5905 5903 5902 5901 5900 5899 5898 5897 5896 5896 5895 5895 5894 5894 5893 5893 5892 5892 5891 5890 5890 5890 5890 5889 5888 5887 5886 5885 5884 5883 5881 5880